SAS1648 EDDH-EKCH

Flight info

Callsign SAS1648
Flight time 0h 38m
Altitude 23000
Route LUGEG3G/33 LUGEG P605 GESKA/N0373F220 Z711 MONAK
Aircraft MD82/M-SDFGIRWY/S

Departure

Time 2026-05-01 08:37
Airport Hamburg Helmut Schmidt Airport (EDDH)

Arrival

Time 2026-05-01 09:16
Airport Copenhagen Kastrup Airport (EKCH)
Time Latitude Longitude Altitude Speed Heading
2026-05-01 08:12 53.62886 10.00228 51 ft 0 kts 121°
2026-05-01 08:29 53.62890 10.00217 51 ft 2 kts 121°
2026-05-01 08:29 53.62899 10.00193 46 ft 2 kts 122°
2026-05-01 08:29 53.62908 10.00169 45 ft 2 kts 123°
2026-05-01 08:29 53.62917 10.00147 48 ft 2 kts 127°
2026-05-01 08:30 53.62929 10.00127 45 ft 2 kts 159°
2026-05-01 08:30 53.62942 10.00129 49 ft 1 kts 211°
2026-05-01 08:30 53.62944 10.00131 45 ft 0 kts 212°
2026-05-01 08:33 53.62931 10.00116 47 ft 5 kts 212°
2026-05-01 08:34 53.62896 10.00079 51 ft 7 kts 213°
2026-05-01 08:34 53.62861 10.00016 51 ft 8 kts 237°
2026-05-01 08:34 53.62848 9.99976 51 ft 1 kts 240°
2026-05-01 08:34 53.62845 9.99968 51 ft 2 kts 240°
2026-05-01 08:35 53.62835 9.99938 51 ft 4 kts 240°
2026-05-01 08:35 53.62817 9.99881 48 ft 7 kts 246°
2026-05-01 08:35 53.62818 9.99804 49 ft 6 kts 301°
2026-05-01 08:35 53.62850 9.99757 49 ft 7 kts 331°
2026-05-01 08:36 53.62854 9.99753 49 ft 0 kts 332°
2026-05-01 08:36 53.62868 9.99742 50 ft 7 kts 332°
2026-05-01 08:36 53.63018 9.99609 49 ft 52 kts 333°
2026-05-01 08:37 53.63549 9.99149 51 ft 119 kts 333°
2026-05-01 08:37 53.64462 9.98365 88 ft 171 kts 333°
2026-05-01 08:37 53.65538 9.97442 872 ft 168 kts 333°
2026-05-01 08:37 53.66617 9.96610 1663 ft 180 kts 337°
2026-05-01 08:38 53.67825 9.95790 2387 ft 184 kts 334°
2026-05-01 08:38 53.68992 9.95035 3193 ft 184 kts 352°
2026-05-01 08:38 53.70351 9.94811 3618 ft 203 kts 356°
2026-05-01 08:38 53.71762 9.94670 4496 ft 204 kts 358°
2026-05-01 08:39 53.73224 9.94681 5261 ft 210 kts
2026-05-01 08:39 53.74636 9.95534 5784 ft 227 kts 36°
2026-05-01 08:39 53.75776 9.97320 6713 ft 223 kts 58°
2026-05-01 08:39 53.76442 9.99595 7707 ft 214 kts 75°
2026-05-01 08:40 53.77132 10.04424 9631 ft 194 kts 78°
2026-05-01 08:40 53.77489 10.06517 10660 ft 186 kts 75°
2026-05-01 08:40 53.77922 10.08676 11029 ft 204 kts 72°
2026-05-01 08:41 53.78439 10.11056 11300 ft 228 kts 71°
2026-05-01 08:41 53.79058 10.13693 11475 ft 254 kts 70°
2026-05-01 08:41 53.79775 10.16560 11698 ft 276 kts 68°
2026-05-01 08:41 53.80587 10.19637 11933 ft 296 kts 67°
2026-05-01 08:42 53.81482 10.22896 12141 ft 315 kts 66°
2026-05-01 08:42 53.82461 10.26340 12342 ft 332 kts 66°
2026-05-01 08:42 53.83492 10.29923 12609 ft 346 kts 66°
2026-05-01 08:42 53.84564 10.33622 13124 ft 352 kts 65°
2026-05-01 08:43 53.85648 10.37343 13790 ft 352 kts 65°
2026-05-01 08:43 53.86735 10.41072 14449 ft 353 kts 65°
2026-05-01 08:43 53.87815 10.44808 15024 ft 354 kts 65°
2026-05-01 08:43 53.88898 10.48583 15523 ft 358 kts 65°
2026-05-01 08:44 53.89988 10.52396 16010 ft 362 kts 65°
2026-05-01 08:44 53.91082 10.56269 16552 ft 365 kts 65°
2026-05-01 08:44 53.92180 10.60178 17109 ft 368 kts 65°
2026-05-01 08:44 53.93285 10.64107 17666 ft 370 kts 65°
2026-05-01 08:45 53.94564 10.67917 18170 ft 375 kts 53°
2026-05-01 08:45 53.96287 10.71277 18726 ft 379 kts 47°
2026-05-01 08:45 53.98121 10.74515 19179 ft 382 kts 46°
2026-05-01 08:45 53.99986 10.77771 19655 ft 385 kts 46°
2026-05-01 08:46 54.01861 10.81052 20157 ft 387 kts 47°
2026-05-01 08:46 54.03731 10.84347 20672 ft 389 kts 47°
2026-05-01 08:46 54.05606 10.87691 21160 ft 391 kts 47°
2026-05-01 08:46 54.07480 10.91080 21621 ft 394 kts 47°
2026-05-01 08:47 54.09354 10.94499 22100 ft 397 kts 48°
2026-05-01 08:47 54.11241 10.97964 22547 ft 400 kts 48°
2026-05-01 08:47 54.13143 11.01481 22806 ft 407 kts 48°
2026-05-01 08:47 54.15062 11.05061 22887 ft 407 kts 49°
2026-05-01 08:48 54.16946 11.08583 22940 ft 398 kts 49°
2026-05-01 08:48 54.18798 11.12043 22965 ft 392 kts 48°
2026-05-01 08:48 54.20636 11.15473 22978 ft 390 kts 48°
2026-05-01 08:48 54.22466 11.18890 22978 ft 390 kts 49°
2026-05-01 08:49 54.24297 11.22324 22982 ft 390 kts 49°
2026-05-01 08:49 54.26124 11.25755 22982 ft 391 kts 49°
2026-05-01 08:49 54.27953 11.29192 22979 ft 392 kts 49°
2026-05-01 08:49 54.29790 11.32645 22979 ft 392 kts 49°
2026-05-01 08:50 54.31628 11.36102 22978 ft 392 kts 49°
2026-05-01 08:50 54.33463 11.39553 22977 ft 392 kts 49°
2026-05-01 08:50 54.35304 11.43020 22978 ft 393 kts 49°
2026-05-01 08:50 54.37138 11.46476 22969 ft 393 kts 49°
2026-05-01 08:51 54.38978 11.49953 22845 ft 393 kts 49°
2026-05-01 08:51 54.40810 11.53421 22738 ft 391 kts 49°
2026-05-01 08:51 54.42642 11.56893 22293 ft 395 kts 49°
2026-05-01 08:51 54.44489 11.60395 21488 ft 395 kts 49°
2026-05-01 08:52 54.46330 11.63883 20707 ft 392 kts 48°
2026-05-01 08:52 54.48152 11.67344 19946 ft 389 kts 48°
2026-05-01 08:52 54.50079 11.70597 19280 ft 386 kts 36°
2026-05-01 08:52 54.52347 11.73049 19285 ft 389 kts 31°
2026-05-01 08:53 54.54695 11.75472 19563 ft 397 kts 32°
2026-05-01 08:53 54.57023 11.78061 20022 ft 400 kts 34°
2026-05-01 08:53 54.59305 11.80780 20635 ft 399 kts 36°
2026-05-01 08:53 54.61479 11.83490 21319 ft 395 kts 37°
2026-05-01 08:54 54.63695 11.86333 22084 ft 391 kts 38°
2026-05-01 08:54 54.65876 11.89177 22444 ft 397 kts 38°
2026-05-01 08:54 54.68076 11.92068 22278 ft 406 kts 38°
2026-05-01 08:54 54.70342 11.95052 21591 ft 412 kts 38°
2026-05-01 08:55 54.72626 11.98055 20480 ft 414 kts 38°
2026-05-01 08:55 54.74930 12.01074 19369 ft 417 kts 37°
2026-05-01 08:55 54.77241 12.04093 18546 ft 412 kts 37°
2026-05-01 08:55 54.79502 12.07036 17898 ft 401 kts 37°
2026-05-01 08:56 54.81700 12.09894 17244 ft 391 kts 37°
2026-05-01 08:56 54.83848 12.12706 16599 ft 382 kts 38°
2026-05-01 08:56 54.85945 12.15469 15963 ft 374 kts 38°
2026-05-01 08:56 54.87994 12.18173 15352 ft 366 kts 38°
2026-05-01 08:57 54.90000 12.20820 14753 ft 360 kts 38°
2026-05-01 08:57 54.91992 12.23453 14155 ft 358 kts 38°
2026-05-01 08:57 54.93969 12.26065 13512 ft 357 kts 38°
2026-05-01 08:57 54.95943 12.28668 12916 ft 356 kts 38°
2026-05-01 08:58 54.98016 12.31023 12306 ft 354 kts 24°
2026-05-01 08:58 55.00390 12.31970 11714 ft 353 kts
2026-05-01 08:58 55.02826 12.31512 11136 ft 351 kts 353°
2026-05-01 08:58 55.05254 12.31401 10554 ft 346 kts
2026-05-01 08:59 55.07563 12.32278 10088 ft 334 kts 19°
2026-05-01 08:59 55.09697 12.33694 9659 ft 322 kts 25°
2026-05-01 08:59 55.11680 12.35365 9250 ft 312 kts 29°
2026-05-01 08:59 55.13553 12.37169 8839 ft 303 kts 31°
2026-05-01 09:00 55.15342 12.39036 8436 ft 296 kts 32°
2026-05-01 09:00 55.17068 12.40920 8036 ft 290 kts 33°
2026-05-01 09:00 55.18745 12.42797 7646 ft 284 kts 34°
2026-05-01 09:00 55.20397 12.44676 7257 ft 280 kts 34°
2026-05-01 09:01 55.22020 12.46532 6864 ft 277 kts 34°
2026-05-01 09:01 55.23625 12.48367 6464 ft 274 kts 33°
2026-05-01 09:01 55.25215 12.50184 6058 ft 272 kts 33°
2026-05-01 09:01 55.26800 12.51988 5664 ft 270 kts 32°
2026-05-01 09:02 55.28375 12.53775 5275 ft 268 kts 32°
2026-05-01 09:02 55.29930 12.55530 4923 ft 265 kts 31°
2026-05-01 09:02 55.31477 12.57261 4566 ft 262 kts 31°
2026-05-01 09:02 55.33006 12.58968 4239 ft 258 kts 31°
2026-05-01 09:03 55.34510 12.60646 3943 ft 254 kts 31°
2026-05-01 09:03 55.35988 12.62296 3670 ft 249 kts 31°
2026-05-01 09:03 55.37430 12.63910 3540 ft 243 kts 30°
2026-05-01 09:03 55.38858 12.65504 3483 ft 243 kts 31°
2026-05-01 09:04 55.40290 12.67106 3435 ft 246 kts 31°
2026-05-01 09:04 55.41760 12.68751 3188 ft 251 kts 31°
2026-05-01 09:04 55.43218 12.70391 3092 ft 247 kts 31°
2026-05-01 09:04 55.44659 12.72012 3040 ft 244 kts 31°
2026-05-01 09:05 55.46091 12.73623 3018 ft 245 kts 31°
2026-05-01 09:05 55.47512 12.75227 3009 ft 246 kts 31°
2026-05-01 09:05 55.48974 12.76877 3012 ft 247 kts 31°
2026-05-01 09:05 55.50407 12.78498 3008 ft 248 kts 31°
2026-05-01 09:06 55.51856 12.80136 3000 ft 248 kts 31°
2026-05-01 09:06 55.53310 12.81782 3004 ft 248 kts 31°
2026-05-01 09:06 55.54764 12.83429 3000 ft 248 kts 31°
2026-05-01 09:06 55.56211 12.85071 3003 ft 248 kts 30°
2026-05-01 09:07 55.57660 12.86717 3002 ft 247 kts 31°
2026-05-01 09:07 55.59104 12.88362 3003 ft 247 kts 31°
2026-05-01 09:07 55.60544 12.90000 3002 ft 247 kts 30°
2026-05-01 09:07 55.61987 12.91641 3011 ft 246 kts 30°
2026-05-01 09:08 55.63424 12.93280 3001 ft 245 kts 31°
2026-05-01 09:08 55.64859 12.94915 3002 ft 246 kts 31°
2026-05-01 09:08 55.66297 12.96555 3002 ft 246 kts 30°
2026-05-01 09:08 55.67735 12.98193 2999 ft 246 kts 30°
2026-05-01 09:09 55.69191 12.99855 3002 ft 245 kts 30°
2026-05-01 09:09 55.70627 13.01499 3000 ft 246 kts 30°
2026-05-01 09:09 55.72071 13.03129 3051 ft 247 kts 26°
2026-05-01 09:09 55.73696 13.03823 3020 ft 242 kts 349°
2026-05-01 09:10 55.75160 13.02515 3023 ft 238 kts 319°
2026-05-01 09:10 55.76387 13.00527 3005 ft 239 kts 317°
2026-05-01 09:10 55.77551 12.98418 2992 ft 240 kts 306°
2026-05-01 09:10 55.78068 12.95664 3003 ft 242 kts 268°
2026-05-01 09:11 55.77709 12.92727 3104 ft 242 kts 256°
2026-05-01 09:11 55.77228 12.89971 3094 ft 227 kts 247°
2026-05-01 09:11 55.76258 12.87885 3097 ft 216 kts 221°
2026-05-01 09:11 55.75108 12.86266 3094 ft 207 kts 222°
2026-05-01 09:12 55.74039 12.84613 3100 ft 202 kts 224°
2026-05-01 09:12 55.72959 12.82944 2807 ft 208 kts 223°
2026-05-01 09:12 55.71867 12.81267 2526 ft 204 kts 225°
2026-05-01 09:12 55.70833 12.79652 2255 ft 194 kts 225°
2026-05-01 09:13 55.70171 12.78623 2050 ft 189 kts 225°
2026-05-01 09:13 55.69201 12.77099 1768 ft 183 kts 224°
2026-05-01 09:13 55.68263 12.75645 1529 ft 174 kts 224°
2026-05-01 09:13 55.67384 12.74279 1354 ft 160 kts 224°
2026-05-01 09:14 55.66578 12.73027 1139 ft 150 kts 225°
2026-05-01 09:14 55.65817 12.71842 882 ft 142 kts 223°
2026-05-01 09:14 55.65106 12.70724 737 ft 134 kts 223°
2026-05-01 09:14 55.64414 12.69635 541 ft 132 kts 221°
2026-05-01 09:15 55.63727 12.68564 362 ft 131 kts 220°
2026-05-01 09:15 55.63040 12.67518 183 ft 130 kts 217°
2026-05-01 09:15 55.62357 12.66466 29 ft 129 kts 220°
2026-05-01 09:15 55.61753 12.65535 24 ft 81 kts 220°
2026-05-01 09:16 55.61609 12.65106 24 ft 29 kts 281°
2026-05-01 09:16 55.61664 12.64915 24 ft 17 kts 307°
2026-05-01 09:16 55.61753 12.64797 24 ft 16 kts 341°
2026-05-01 09:17 55.61964 12.64892 24 ft 17 kts 33°
2026-05-01 09:17 55.62065 12.65009 25 ft 18 kts 33°
2026-05-01 09:17 55.62293 12.65198 24 ft 19 kts
2026-05-01 09:18 55.62426 12.65201 24 ft 15 kts 359°
2026-05-01 09:18 55.62641 12.65216 26 ft 15 kts 55°
2026-05-01 09:19 55.62716 12.65319 24 ft 0 kts 17°